OBJECT A, 55009

Orbit data source: Space-Track

You're viewing an Uncataloged Satellite

Recently launched and/or uncataloged satellites may have evolving metadata. Metadata may include but not limited to: Owner, Maufacturer, Bus, Motor, and Mission.

OBJECT A, 55009 is a satellite in SSO that was launched on Tue, 03 Jan 2023 UTC via an FALCON 9 launch vehicle from the Air Force Eastern Test Range (AFETR). Unknown objects in Earth's orbit typically refer to objects detected orbiting the Earth but have not yet been identified or cataloged. These objects could be anything from previously untracked satellites, spent rocket stages, debris from satellite collisions, or even natural meteoroids temporarily captured by Earth's gravity.

Loading next visibility...
Identifier
55009, 2023-001A
Orbit
SSO
Country
Flag of TBDTBD
Related business
Flag of PLScanway Space (PL)
Manufacturer
German Orb Sys
Mission
Operational Commercial Imaging
Bus & Motor
CUBESAT 6U, Unknown motor
Mass
10 kg wet, ~10 kg dry
Launch date (UTC)
2023-01-03 (3 years ago)
Launch vehicle
FALCON 9
Launch site
Air Force Eastern Test Range (AFETR)
Object type
Unknown
Shape & HBR
Box + 2 Pan, 0.1 m
Radar Cross Section
0.080 m², Medium (>0.1 m² and < 1m²)

Expand to show TLE details & history
Last TLE update: 7 hours ago

TLE from 7 hours ago
0 OBJECT A
1 55009U 23001A   26044.91288657  .00014319  00000-0  37296-3 0  9995
2 55009  97.3353 109.1006 0006042 186.3874 173.7296 15.38961775173241
Epoch: 2026-02-13T21:54Z
TLE epoch observation values (Epoch: 2026-02-13T21:54:33.399Z)
Latitude
Longitude
-3.48204°
Altitude
456.398 km
Speed
7.636 km/s
True Right ascension
07h 16m 24s
True Declination
0° 00' 00"
Sunlit
Object was in full shadow at epoch
Visualization orbit readout
Latitude
Unknown
Longitude
Unknown
Altitude
Unknown
Speed
Unknown
Apparent Right ascension
Unknown
Apparent Declination
Unknown
Sunlit
N/A
Visualization observer readout
Local Sidereal Time
07:09:37
Azimuth
Unknown
Elevation
Unknown
Doppler factor
Unknown
Orbital elements
Apogee altitude
450.239 km
Perigee altitude
441.993 km
Semi-major axis
6,824.253 km
Eccentricity
0.0006
Inclination
97.3353°
RAAN
109.1006°
Arg. of periapsis
186.3874°
True anomaly
173.73716°
Mean anomaly
173.7296°
Eccentric anomaly
173.73338°
Mean motion
3.85 °/min
Orbital period
93.51 mins
BSTAR
0.00037296
Loading maneuver chart data...
Computing Atmospheric mass density...

Documentation

Showing up to 5 results
|